TimeEDT,TemperatureF,Dew PointF,Humidity,Sea Level PressureIn,VisibilityMPH,Wind Direction,Wind SpeedMPH,Gust SpeedMPH,PrecipitationIn,Events,Conditions,WindDirDegrees,DateUTC
12:53 AM,61.0,53.1,75,30.20,10.0,SE,5.8,-,N/A,,Clear,140,2014-03-15 04:53:00
1:53 AM,60.1,53.1,78,30.18,10.0,SE,3.5,-,N/A,,Clear,140,2014-03-15 05:53:00
2:53 AM,60.1,54.0,80,30.17,10.0,SSW,4.6,-,N/A,,Clear,200,2014-03-15 06:53:00
3:53 AM,60.1,53.1,78,30.16,10.0,South,5.8,-,N/A,,Clear,180,2014-03-15 07:53:00
4:53 AM,60.1,53.1,78,30.14,10.0,SSE,5.8,-,N/A,,Clear,150,2014-03-15 08:53:00
5:53 AM,59.0,52.0,78,30.14,10.0,SE,3.5,-,N/A,,Clear,130,2014-03-15 09:53:00
6:53 AM,57.0,53.1,87,30.15,10.0,Calm,Calm,-,N/A,,Clear,0,2014-03-15 10:53:00
7:53 AM,55.0,52.0,89,30.18,10.0,North,3.5,-,N/A,,Clear,10,2014-03-15 11:53:00
8:53 AM,61.0,55.9,83,30.18,10.0,SE,5.8,-,N/A,,Clear,130,2014-03-15 12:53:00
9:53 AM,64.9,54.0,68,30.19,10.0,Variable,3.5,-,N/A,,Clear,0,2014-03-15 13:53:00
10:53 AM,69.1,55.0,61,30.19,10.0,SE,4.6,-,N/A,,Clear,140,2014-03-15 14:53:00
11:53 AM,73.0,53.1,49,30.19,10.0,SSE,3.5,-,N/A,,Clear,160,2014-03-15 15:53:00
12:53 PM,75.0,51.1,43,30.17,10.0,SSE,6.9,-,N/A,,Clear,150,2014-03-15 16:53:00
1:53 PM,75.9,50.0,40,30.14,10.0,South,4.6,-,N/A,,Clear,170,2014-03-15 17:53:00
2:53 PM,77.0,48.0,36,30.10,10.0,Variable,3.5,-,N/A,,Clear,0,2014-03-15 18:53:00
3:53 PM,78.1,48.9,36,30.07,10.0,SE,4.6,-,N/A,,Clear,140,2014-03-15 19:53:00
4:53 PM,78.1,48.9,36,30.06,10.0,SE,4.6,-,N/A,,Clear,130,2014-03-15 20:53:00
5:53 PM,78.1,50.0,37,30.05,10.0,ESE,5.8,-,N/A,,Clear,120,2014-03-15 21:53:00
6:53 PM,75.9,51.1,42,30.05,10.0,SE,6.9,-,N/A,,Partly Cloudy,130,2014-03-15 22:53:00
7:53 PM,72.0,55.9,57,30.05,10.0,ESE,5.8,-,N/A,,Clear,120,2014-03-15 23:53:00
8:53 PM,71.1,54.0,55,30.05,10.0,ESE,4.6,-,N/A,,Clear,110,2014-03-16 00:53:00
9:53 PM,68.0,57.9,70,30.07,10.0,SSW,4.6,-,N/A,,Clear,200,2014-03-16 01:53:00
10:53 PM,70.0,57.0,63,30.08,10.0,South,9.2,-,N/A,,Partly Cloudy,180,2014-03-16 02:53:00
11:53 PM,68.0,57.9,70,30.08,10.0,SSE,5.8,-,N/A,,Overcast,150,2014-03-16 03:53:00